AirNav   Air Wisconsin Up To $57,000 Bonus
 
 933 users online  

N81 Hammonton Municipal Airport
Hammonton, New Jersey, USA

GOING TO HAMMONTON?


FAA INFORMATION EFFECTIVE 17 JUNE 2021

Location

FAA Identifier: N81
Lat/Long: 39-40-02.9000N 074-45-27.8000W
39-40.048333N 074-45.463333W
39.6674722,-74.7577222
(estimated)
Elevation: 64.6 ft. / 19.7 m (surveyed)
Variation: 13W (2000)
From city: 3 miles NE of HAMMONTON, NJ
Time zone: UTC -4 (UTC -5 during Standard Time)
Zip code: 08037

Airport Operations

Airport use: Open to the public
Activation date: 12/1969
Control tower: no
ARTCC: WASHINGTON CENTER
FSS: MILLVILLE FLIGHT SERVICE STATION
NOTAMs facility: MIV (NOTAM-D service available)
Attendance: 0800-DUSK
Wind indicator: lighted
Segmented circle: no
Lights: ACTVT REIL RWY 03 & 21; MIRL RWY 03/21 - 123.5. VGSI CONS.
Beacon: white-green (lighted land airport)
Operates sunset to sunrise.

Airport Communications

CTAF/UNICOM: 122.7
WX AWOS-AV: 122.7
ATLANTIC CITY APPROACH: 134.25
ATLANTIC CITY DEPARTURE: 134.25
WX ASOS at ACY (15 nm SE): PHONE 609-272-9311
WX ASOS at VAY (17 nm N): 119.325 (609-267-1176)
  • GCO 121.725

Nearby radio navigation aids

VOR radial/distance  VOR name  Freq  Var
VCNr061/12.4CEDAR LAKE VOR/DME115.2010W
ACYr337/15.2ATLANTIC CITY VORTAC108.6010W
CYNr249/17.5COYLE VORTAC113.4010W
GXUr212/21.8MC GUIRE VORTAC110.6012W
OODr096/25.3WOODSTOWN VORTAC112.8010W
RBVr211/34.3ROBBINSVILLE VORTAC113.8010W
SIEr012/34.4SEA ISLE VORTAC114.8009W
ARDr179/35.8YARDLEY VOR/DME108.2010W
DQOr101/39.2DUPONT VORTAC114.0010W

 
NDB name  Hdg/Dist  Freq  Var  ID
RAINBOW060/23.036311WRNB .-. -. -...
LAKEHURST232/29.839611WNEL -. . .-..
AMBLER151/36.727512WING .. -. --.

Airport Services

Fuel available: 100LL JET-A
Parking: hangars and tiedowns
Airframe service: MAJOR
Powerplant service: MAJOR
Bottled oxygen: NONE
Bulk oxygen: NONE

Runway Information

Runway 3/21

Dimensions: 3601 x 75 ft. / 1098 x 23 m
Surface: asphalt, in good condition
Weight bearing capacity: 
Single wheel: 12.0
Runway edge lights: medium intensity
RUNWAY 3  RUNWAY 21
Latitude: 39-39.763368N39-40.333083N
Longitude: 074-45.570430W074-45.357193W
Elevation: 64.1 ft.57.5 ft.
Traffic pattern: leftleft
Runway heading: 029 magnetic, 016 true209 magnetic, 196 true
Markings: nonprecision, in good conditionnonprecision, in good condition
Visual slope indicator: 2-light PAPI on left (3.50 degrees glide path)2-light PAPI on left (3.25 degrees glide path)
Runway end identifier lights: yesyes
Touchdown point: yes, no lightsyes, no lights
Obstructions: 61 ft. trees, 725 ft. from runway, 270 ft. right of centerline, 8:1 slope to clear
+30 FT TREES 190-240 FT L 70-170 FT FROM THLD.
40 ft. trees, 210 ft. from runway, 150 ft. right of centerline
+50 FT TREES 150 FT R 0-200 FT FROM THLD.

Airport Ownership and Management from official FAA records

Ownership: Publicly-owned
Owner: TOWN OF HAMMONTON
TOWN HALL, 100 CENTRAL AVENUE
HAMMONTON, NJ 08037
Phone (609) 567-4300
EXT 121.
Manager: FRANK ZUBER
TOWN HALL, 100 CENTRAL AVENUE
HAMMONTON, NJ 08037
Phone (609) 567-4300
EXT 121.

Airport Operational Statistics

Aircraft based on the field: 9
Single engine airplanes: 9
    
Aircraft operations: avg 53/day *
54% local general aviation
46% transient general aviation
* for 12-month period ending 02 May 2019

Additional Remarks

ON ARPT MAINTENANCE CTC (609) 774-3635.
RWY 03; PARALLEL DITCH FIRST 500 FT OF RWY R SIDE WITHIN 100 FT OF CTLN.
DEER & BIRDS ON & INVOF ARPT.

Instrument Procedures

NOTE: All procedures below are presented as PDF files. If you need a reader for these files, you should download the free Adobe Reader.

NOT FOR NAVIGATION. Please procure official charts for flight.
FAA instrument procedures published for use from 17 June 2021 at 0901Z to 15 July 2021 at 0900Z.

 
IAPs - Instrument Approach Procedures
RNAV (GPS) RWY 03   download (209KB)
VOR-B **CHANGED**   download (181KB)
NOTE: Special Take-Off Minimums/Departure Procedures apply   download (150KB)

Other nearby airports with instrument procedures:

19N - Camden County Airport (11 nm NW)
17N - Cross Keys Airport (13 nm W)
KACY - Atlantic City International Airport (15 nm SE)
29N - Kroelinger Airport (16 nm SW)
N14 - Flying W Airport (16 nm N)
KVAY - South Jersey Regional Airport (17 nm N)
 
Loc | Ops | Rwys | IFR | FBO | Links
Com | Nav | Svcs | Stats | Notes
Area around N81 (Hammonton Municipal Airport)
 
Road maps at: MapQuest Bing Google
 
Aerial photo
WARNING: Photo may not be current or correct
Aerial photo of N81 (Hammonton Municipal Airport)
Photo courtesy of AirNav, LLC
Photo taken 01-Mar-2014
looking north-northeast.

Do you have a better or more recent aerial photo of Hammonton Municipal Airport that you would like to share? If so, please send us your photo.

 
Sectional chart

 
Airport distance calculator
Flying to Hammonton Municipal Airport? Find the distance to fly.

From to N81

Sunrise and sunset
Times for 19-Jun-2021
 Local
(UTC-4)
 Zulu
(UTC)
Morning civil twilight04:5908:59
Sunrise05:3209:32
Sunset20:2900:29
Evening civil twilight21:0101:01

Current date and time
Zulu (UTC)  19-Jun-2021 12:41:42
Local (UTC-4)  19-Jun-2021 08:41:42
 
METAR
KACY 
14nm SE 
191154Z AUTO 23008KT 10SM CLR 23/18 A2982 RMK AO2 SLP095 T02330183 10233 20211 55002 TSNO
KVAY 
16nm N 
ASOS 119.325 609-267-1176
191154Z AUTO 23005KT 10SM CLR 23/19 A2980 RMK AO2 SLP091 6//// 7//// T02280189 10228 20194 53001 $
KWRI 
22nm N 
191156Z 23006KT 10SM FEW041 21/19 A2979 RMK SLP087 60003 70003 T02120189 10212 20180 55000
KMIV 
24nm SW 
191154Z AUTO 24007KT 10SM FEW049 23/18 A2982 RMK AO2 SLP097 T02330178 10233 20217 53001
KPHL 
25nm NW 
191154Z 22009KT 10SM SCT045 BKN150 OVC230 23/18 A2981 RMK AO2 SLP094 60004 70004 T02280183 10228 20200 53005
KMJX 
27nm NE 
AWOS-3 119.875 732-244-4450
181856Z AUTO 23014G20KT 10SM CLR 30/09 A2998 RMK AO2 SLP157 T03000094 TSNO
KPNE 
28nm NW 
191154Z 25006KT 10SM FEW038 23/19 A2982 RMK AO2 SLP095 60009 70009 T02280189 10228 20189 53003
KNEL 
29nm NE 
191200Z AUTO 25010KT 10SM CLR A2979 RMK AO2 SLPNO 6//// 7//// 56010 PNO $
TAF
KACY 
14nm SE 
191120Z 1912/2012 21007KT P6SM FEW250 FM191400 24009KT P6SM SCT250 FM192200 26010G18KT P6SM SCT080 FM200700 VRB04KT 6SM BR BKN015
NOTAMs
Click for the latest NOTAMs
NOTAMs are issued by the DoD/FAA and will open in a separate window not controlled by AirNav.

 

 
 

FBO, Fuel Providers, and Aircraft Ground Support

  
 Business Name 
 
 Contact 
 
 Services / Description 
 
Fuel Prices
 
Comments
  
Star Aero Avionics LLC 609-567-5300
no information available

If you are affiliated with Star Aero Avionics LLC and would like to show here your services, contact info, web link, logo, and more, click here
100LL Jet A
FS $5.80 $5.80 
 Updated 22-Apr-2021
 
   write
FS=Full service
Update Fuel Prices
 

Would you like to see your business listed on this page?

 If your business provides an interesting product or service to pilots, flight crews, aircraft, or users of the Hammonton Municipal Airport, you should consider listing it here.  To start the listing process, click on the button below
 
Add a business
 

Other Pages about Hammonton Municipal Airport

Update a link
 
Copyright © AirNav, LLC. All rights reserved. Privacy Policy  Contact